Flag for Taiwan Weather past 2 weeks in Taipei, Taiwan

Now
84 °F

Passing clouds.


Feels Like: 92 °F
Forecast: 83 / 94 °F
Wind: 10 mph from West

Location: Sungshan / Taipei

Current Time: Aug 1, 2014 at 4:21:33 AM

Latest Report: Aug 1, 2014 at 3:00 AM


Visibility: N/A

Pressure: 29.42 "Hg

Humidity: 74%

Dew point: 75 °F

Location of TaipeiLocation

Historic Weather in Taipei — Graph

°F

Taipei temperature yesterday

Maximum temperature yesterday: 90 °F (at 12:30 PM)
Minimum temperature yesterday: 81 °F (at 4:54 AM)
Average temperature yesterday: 85 °F

Past Weeks' High & Low Weather Summary

 TemperatureHumidityPressure
High95 °F (Jul 17, 10:30 AM)89% (Jul 22, 4:30 AM)29.89 "Hg (Jul 22, 4:30 AM)
Low77 °F (Jul 26, 4:00 AM)39% (Jul 20, 3:00 PM)29.24 "Hg (Jul 23, 7:00 AM)
Average87 °F65%29.68 "Hg
* Reported Jul 17 3:00 AM — Aug 1 3:00 AM, Taipei, Weather by CustomWeather, © 2014

Note: Actual official high and low records may vary slightly from our data, if they occured in-between our weather recording intervals... More about our weather records

Advertising

Taipei weather history for previous 24 hours

 ConditionsComfort  
Time TempWeatherWind HumidityBarometerVisibility
3:00 AM
Aug 1
84 °FPassing clouds.10 mph74%29.42 "HgN/A
2:00 AM84 °FPassing clouds.13 mph74%29.45 "HgN/A
1:00 AM84 °FPassing clouds.9 mph79%29.45 "HgN/A
12:00 AM86 °FPassing clouds.12 mph70%29.47 "HgN/A
11:30 PM
Jul 31
86 °FPassing clouds.8 mph70%29.47 "HgN/A
11:00 PM86 °FPartly cloudy.6 mph66%29.50 "HgN/A
10:30 PM86 °FPassing clouds.7 mph66%29.50 "HgN/A
10:00 PM86 °FPassing clouds.7 mph66%29.50 "HgN/A
9:30 PM86 °FPassing clouds.7 mph66%29.50 "HgN/A
9:00 PM86 °FPartly cloudy.6 mph66%29.50 "HgN/A
8:30 PM86 °FPartly cloudy.5 mph66%29.50 "HgN/A
8:00 PM86 °FPassing clouds.3 mph66%29.47 "HgN/A
7:30 PM86 °FPassing clouds.3 mph66%29.47 "HgN/A
7:00 PM86 °FPassing clouds.3 mph66%29.47 "HgN/A
6:30 PM86 °FPartly sunny.6 mph62%29.45 "HgN/A
6:00 PM88 °FPartly sunny.8 mph59%29.47 "HgN/A
5:30 PM88 °FPartly sunny.12 mph59%29.47 "HgN/A
5:00 PM88 °FBroken clouds.12 mph62%29.47 "HgN/A
4:30 PM88 °FBroken clouds.13 mph66%29.47 "HgN/A
4:00 PM88 °FPartly sunny.14 mph66%29.47 "HgN/A
3:57 PM88 °FPartly sunny.14 mph66%29.47 "HgN/A
3:30 PM88 °FPartly sunny.17 mph66%29.47 "HgN/A
3:00 PM88 °FPartly sunny.17 mph66%29.47 "HgN/A
2:30 PM90 °FPartly sunny.17 mph67%29.47 "HgN/A
2:00 PM88 °FSprinkles. Partly sunny.15 mph70%29.50 "HgN/A
1:56 PM90 °FSprinkles. Partly sunny.16 mph67%29.50 "HgN/A
1:30 PM88 °FPartly sunny.16 mph70%29.50 "HgN/A
1:00 PM88 °FBroken clouds.16 mph66%29.50 "HgN/A
12:30 PM90 °FBroken clouds.17 mph67%29.50 "HgN/A
12:00 PM86 °FSprinkles. Broken clouds.12 mph75%29.53 "HgN/A
11:30 AM86 °FScattered showers. Broken clouds.13 mph75%29.53 "HgN/A
11:00 AM86 °FScattered showers. Partly sunny.14 mph75%29.53 "HgN/A
10:30 AM86 °FPartly sunny.13 mph75%29.53 "HgN/A
10:00 AM82 °FSprinkles. Partly sunny.15 mph79%29.53 "HgN/A
9:30 AM82 °FSprinkles. Partly sunny.15 mph79%29.56 "Hg4 mi
9:00 AM84 °FBroken clouds.13 mph79%29.56 "HgN/A
8:30 AM82 °FBroken clouds.12 mph79%29.56 "HgN/A
8:00 AM82 °FPartly sunny.10 mph79%29.56 "HgN/A
7:30 AM82 °FSprinkles. Partly sunny.9 mph84%29.59 "Hg5 mi
7:00 AM81 °FThundershowers. Broken clouds.5 mph89%29.56 "Hg4 mi
6:58 AM81 °FThundershowers. Broken clouds.2 mph89%29.56 "Hg4 mi
6:30 AM81 °FSprinkles. Broken clouds.1 mph89%29.56 "Hg2 mi
6:03 AM81 °FSprinkles. Broken clouds.No wind89%29.56 "HgN/A
5:00 AM81 °FStrong thunderstorms. Overcast.6 mph89%29.56 "Hg1 mi
4:54 AM81 °FStrong thunderstorms. Overcast.6 mph89%29.56 "Hg1 mi
4:02 AM84 °FThundershowers. Partly cloudy.10 mph79%29.53 "Hg6 mi
Weather by CustomWeather, © 2014

See weather overviewHow to use our weather pages